Location: Altmatt
(47.1333°N, 8.7000°E)
Time: 01:18:55
(UTC+00:00)

Cosmos 2251 Rocket - Pass Details

Date: 13 July 2020
Orbit: 765 x 792 km, 74.0° (Epoch: 04 August)

Event Time Altitude Azimuth Distance (km) Brightness Sun altitude
Exits shadow 23:52:11 42° 155° (SSE) 1,077 3.8 -21.1°
Maximum altitude 23:53:32 55° 106° (ESE) 919 3.8 -21.0°
Drops below altitude 10° 23:58:38 10° 30° (NNE) 2,315 6.9 -21.0°
Sets 00:01:04 0° 26° (NNE) 3,248 8.0 -20.9°
